Regional Weather Roundup
Issued by NWS Cleveland, OH

Home | Current Version | Previous Version | Graphics & Text | Print | Product List | Glossary On
Versions: 1 2 3 4 5 6 7 8 9 10 11 12 13 14 15 16 17 18 19 20 21 22 23 24 25 26 27 28 29 30 31 32 33 34 35 36 37 38 39 40 41 42 43 44 45 46 47 48 49 50
000
ASUS41 KCLE 121802
RWRCLE
OHIO REGIONAL WEATHER ROUNDUP
NATIONAL WEATHER SERVICE CLEVELAND, OH
200 PM EDT SAT JUL 12 2014

NOTE: "FAIR" INDICATES FEW OR NO CLOUDS BELOW 12,000 FEET WITH NO
SIGNIFICANT WEATHER AND/OR OBSTRUCTIONS TO VISIBILITY.

OHZ001>008-015>018-024>027-034-035-043-044-121900-
   NORTHWEST OHIO

CITY           SKY/WX    TMP DP  RH WIND       PRES   REMARKS
DEFIANCE       CLOUDY    84  65  52 SW10      30.11F
FINDLAY        PTSUNNY   84  63  49 SW12      30.13F
TOLEDO EXPRESS PTSUNNY   84  62  47 SW13      30.11F
TOLEDO EXEC    CLOUDY    85  59  41 SW12G18   30.12F
LIMA           PTSUNNY   84  65  52 S9        30.15F
$$

OHZ009>014-019>023-028>033-038-089-121900-
   NORTHEAST OHIO

CITY           SKY/WX    TMP DP  RH WIND       PRES   REMARKS
CLE-HOPKINS    PTSUNNY   82  61  48 SW8       30.15F
CLE-LAKEFRONT  MOSUNNY   81  64  56 N6        30.12S
CUY CO. ARPT   PTSUNNY   84  64  51 SW15      30.15S
LORAIN-ELYRIA  PTSUNNY   87  59  38 SW12      30.15S
ASHTABULA      PTSUNNY   81  60  48 S8        30.16F
AKRON-CANTON   PTSUNNY   84  60  44 SW10      30.17S
WOOSTER        PTSUNNY   83  63  50 SW10      30.17S
MANSFIELD      PTSUNNY   81  62  52 SW13      30.17S
YOUNGSTOWN     PTSUNNY   82  59  45 SW12      30.17F
$$

OHZ042-051>053-060>062-070>072-077>081-121900-
  SOUTHWEST OHIO

CITY           SKY/WX    TMP DP  RH WIND       PRES   REMARKS
CINC-COVINGTON CLOUDY    84  64  50 SW10      30.19S
CINC-LUNKEN    PTSUNNY   84  65  52 VRB7      30.17S
HAMILTON       PTSUNNY   84  67  56 VRB5      30.18S
DAYTON         CLOUDY    85  67  54 W12       30.18F
WRIGHT-PAT AFB NOT AVBL
DAYTON GENERAL MOSUNNY   83  64  52 SW9       30.18S
WILMINGTON     MOSUNNY   82  59  45 W9        30.19S
$$

OHZ036-037-039>041-045>050-054>059-063>069-073>076-082>088-121900-
  CENTRAL AND SOUTHEAST OHIO

CITY           SKY/WX    TMP DP  RH WIND       PRES   REMARKS
COLUMBUS       PTSUNNY   86  59  39 SW8G17    30.16S
OSU AIRPORT    MOSUNNY   84  61  45 W12G20    30.17S
BOLTON FIELD   SUNNY     82  63  51 SW10      30.18S
RICKENBACK AFB MOSUNNY   88  53  30 SW13      30.16S
NEWARK         MOSUNNY   83  60  45 W14       30.16S
MARION         CLOUDY    83  60  45 SW13      30.17R
LANCASTER      MOSUNNY   83  62  49 SW8       30.18R
ZANESVILLE     MOSUNNY   83  63  50 SW8       30.17S
NEW PHILLY     NOT AVBL
$$



USA.gov is the U.S. government's official web portal to all federal, state and local government web resources and services.